FW4212 Weather Reports


time (UTC)temp
C
wind
direction
speed
KPH
gust
KPH
rain 1hr
cm
rain 24hr
cm
rain mn
cm
humidity
%
barometer
mb
20260906060533 21 250 0.0 0.0 0.00 0.00 0.00 95 1012.8
20260906060033 21 227 0.0 0.0 0.00 0.00 0.00 94 1012.9
20260906055531 21 227 0.0 0.0 0.00 0.00 0.00 94 1013.0
20260906055031 21 227 0.0 0.0 0.00 0.00 0.00 94 1013.0
20260906054530 21 227 0.0 0.0 0.00 0.00 0.00 94 1013.0
20260906054030 21 227 0.0 0.0 0.00 0.00 0.00 94 1013.0
20260906053530 21 227 0.0 0.0 0.00 0.00 0.00 94 1013.0
20260906053031 21 227 0.0 0.0 0.00 0.00 0.00 94 1013.1
20260906052529 21 227 0.0 0.0 0.00 0.00 0.00 94 1013.1
20260906052029 21 227 0.0 0.0 0.00 0.00 0.00 94 1013.2
20260906051533 21 227 0.0 0.0 0.00 0.00 0.00 93 1013.1
20260906051029 21 227 0.0 0.0 0.00 0.00 0.00 94 1013.3
20260906050528 21 227 0.0 0.0 0.00 0.00 0.00 94 1013.4
20260906050029 21 215 0.0 0.0 0.00 0.00 0.00 94 1013.5
20260906045527 21 215 0.0 6.4 0.00 0.00 0.00 94 1013.3
20260906045027 21 218 3.2 6.4 0.00 0.00 0.00 94 1013.3
20260906044526 21 263 0.0 1.6 0.00 0.00 0.00 93 1013.2
20260906044026 21 263 0.0 0.0 0.00 0.00 0.00 93 1013.1
20260906043525 21 263 0.0 0.0 0.00 0.00 0.00 93 1013.2
20260906043025 21 263 0.0 0.0 0.00 0.00 0.00 93 1013.3
20260906042524 21 263 0.0 0.0 0.00 0.00 0.00 93 1013.3
20260906042024 21 263 0.0 0.0 0.00 0.00 0.00 93 1013.3
20260906041525 21 263 0.0 0.0 0.00 0.00 0.00 93 1013.4
20260906041023 21 263 0.0 0.0 0.00 0.00 0.00 92 1013.5
20260906040522 21 263 0.0 0.0 0.00 0.00 0.00 92 1013.4
20260906040020 21 263 0.0 0.0 0.00 0.00 0.00 92 1013.3
20260906035519 22 263 0.0 0.0 0.00 0.00 0.00 91 1013.5
20260906035019 22 263 0.0 0.0 0.00 0.00 0.00 91 1013.6
20260906034519 22 263 0.0 0.0 0.00 0.00 0.00 90 1013.6
20260906034018 22 263 0.0 0.0 0.00 0.00 0.00 90 1013.6
20260906033519 22 263 0.0 0.0 0.00 0.00 0.00 90 1013.6
20260906033019 22 262 0.0 0.0 0.00 0.00 0.00 90 1013.5
20260906032518 22 263 0.0 0.0 0.00 0.00 0.00 90 1013.4
20260906032019 22 263 0.0 0.0 0.00 0.00 0.00 90 1013.5
20260906031518 22 263 0.0 0.0 0.00 0.00 0.00 90 1013.6
20260906031019 22 262 0.0 1.6 0.00 0.00 0.00 90 1013.7
20260906030518 22 263 0.0 1.6 0.00 0.00 0.00 90 1013.6
20260906030018 22 263 0.0 0.0 0.00 0.00 0.00 91 1013.5
20260906025517 22 263 0.0 0.0 0.00 0.00 0.00 91 1013.3
20260906025017 22 263 0.0 0.0 0.00 0.00 0.00 91 1013.2
20260906024517 22 263 0.0 0.0 0.00 0.00 0.00 91 1013.2
20260906024017 22 263 0.0 0.0 0.00 0.00 0.00 91 1013.2
20260906023520 22 263 0.0 1.6 0.00 0.00 0.00 92 1013.3
20260906023021 22 263 0.0 1.6 0.00 0.00 0.00 92 1013.2
20260906022517 22 263 0.0 0.0 0.00 0.00 0.00 92 1013.4
20260906022017 22 263 0.0 0.0 0.00 0.00 0.00 92 1013.2
20260906021517 22 263 0.0 0.0 0.00 0.00 0.00 92 1013.2
20260906021019 22 263 0.0 0.0 0.00 0.00 0.00 91 1013.0
20260906020516 22 263 0.0 0.0 0.00 0.00 0.00 91 1013.2
20260906020017 22 263 0.0 0.0 0.00 0.00 0.00 91 1013.2
20260906015515 22 263 0.0 0.0 0.00 0.00 0.00 91 1013.1
20260906015015 22 263 0.0 0.0 0.00 0.00 0.00 91 1012.9
20260906014521 22 263 0.0 0.0 0.00 0.00 0.00 90 1013.0
20260906014016 22 263 0.0 0.0 0.00 0.00 0.00 89 1013.0
20260906013515 23 263 0.0 1.6 0.00 0.00 0.00 89 1013.2
20260906013023 23 263 0.0 1.6 0.00 0.00 0.00 88 1013.1
20260906012515 23 263 0.0 0.0 0.00 0.00 0.00 88 1012.9
20260906012017 23 263 0.0 0.0 0.00 0.00 0.00 87 1012.7
20260906011519 23 263 0.0 0.0 0.00 0.00 0.00 87 1012.7
20260906011014 23 262 0.0 0.0 0.00 0.00 0.00 88 1012.6
20260906010515 23 263 0.0 0.0 0.00 0.00 0.00 88 1012.6
20260906010015 23 263 0.0 1.6 0.00 0.00 0.00 88 1012.5
20260906005518 23 263 0.0 1.6 0.00 0.00 0.00 88 1012.5
20260906005015 23 263 0.0 3.2 0.00 0.00 0.00 87 1012.6
20260906004514 23 263 0.0 3.2 0.00 0.00 0.00 87 1012.6
20260906004016 23 263 0.0 0.0 0.00 0.00 0.00 87 1012.5
20260906003513 23 263 0.0 0.0 0.00 0.00 0.00 86 1012.4
20260906003013 23 263 0.0 0.0 0.00 0.00 0.00 86 1012.4
20260906002514 24 263 0.0 0.0 0.00 0.00 0.00 85 1012.1
20260906002013 24 262 0.0 0.0 0.00 0.00 0.00 84 1012.0
20260906001513 24 263 0.0 0.0 0.00 0.00 0.00 83 1012.0
20260906001012 24 263 0.0 0.0 0.00 0.00 0.00 83 1012.0
20260906000513 24 263 0.0 0.0 0.00 0.00 0.00 83 1011.8
20260906000012 24 263 0.0 0.0 0.00 0.00 0.00 82 1011.7
20260905235512 25 263 0.0 0.0 0.00 0.00 0.00 82 1011.7
20260905235012 25 263 0.0 0.0 0.00 0.00 0.00 81 1011.7
20260905234511 25 263 0.0 0.0 0.00 0.00 0.00 80 1011.7
20260905234011 25 263 0.0 0.0 0.00 0.00 0.00 80 1011.6
20260905233512 25 263 0.0 0.0 0.00 0.00 0.00 79 1011.6
20260905233015 25 263 0.0 0.0 0.00 0.00 0.00 78 1011.7
20260905232514 25 263 0.0 1.6 0.00 0.00 0.00 77 1011.7
20260905232011 26 263 0.0 3.2 0.00 0.00 0.00 75 1011.7
20260905231511 26 263 0.0 6.4 0.00 0.00 0.00 74 1011.5
20260905231014 26 254 1.6 6.4 0.00 0.00 0.00 73 1011.5
20260905230511 26 258 0.0 3.2 0.00 0.00 0.00 75 1011.5
20260905230013 26 274 0.0 4.8 0.00 0.00 0.00 77 1011.7
20260905225511 26 244 0.0 0.0 0.00 0.00 0.00 76 1011.5
20260905225010 26 244 0.0 3.2 0.00 0.00 0.00 75 1011.4
20260905224510 27 234 0.0 3.2 0.00 0.00 0.00 73 1011.4
20260905224009 27 274 0.0 3.2 0.00 0.00 0.00 72 1011.6
20260905223509 27 274 0.0 4.8 0.00 0.00 0.00 72 1011.8
20260905223009 27 323 0.0 6.4 0.00 0.00 0.00 72 1011.9
20260905222610 27 267 0.0 6.4 0.00 0.00 0.00 71 1011.7
20260905222008 27 271 0.0 4.8 0.00 0.00 0.00 71 1011.9
20260905221513 27 258 1.6 6.4 0.00 0.00 0.00 70 1011.8
20260905221009 27 238 3.2 9.7 0.00 0.00 0.00 71 1011.8
20260905220508 27 271 1.6 9.7 0.00 0.00 0.00 70 1011.8
20260905220113 27 287 1.6 8.0 0.00 0.00 0.00 72 1011.8
20260905215507 27 273 0.0 0.0 0.00 0.00 0.00 74 1012.0
20260905215007 27 273 0.0 0.0 0.00 0.00 0.00 72 1012.0
20260905214507 27 273 0.0 6.4 0.00 0.00 0.00 72 1012.0
20260905214007 27 190 1.6 6.4 0.00 0.00 0.00 71 1012.1
20260905213512 27 202 1.6 4.8 0.00 0.00 0.00 70 1012.1
20260905213007 27 269 0.0 3.2 0.00 0.00 0.00 74 1012.2
20260905212510 27 269 0.0 3.2 0.00 0.00 0.00 74 1012.3
20260905212006 27 259 0.0 4.8 0.00 0.00 0.00 72 1012.2
20260905211517 27 256 0.0 4.8 0.00 0.00 0.00 74 1012.1
20260905211006 27 225 0.0 4.8 0.00 0.00 0.00 73 1012.1
20260905210506 27 225 0.0 6.4 0.00 0.00 0.00 74 1012.1
20260905210107 27 208 1.6 6.4 0.00 0.00 0.00 72 1012.0
20260905205505 27 205 1.6 4.8 0.00 0.00 0.00 71 1012.3
20260905205005 27 214 0.0 6.4 0.00 0.00 0.00 72 1012.2
20260905204505 27 227 1.6 6.4 0.00 0.00 0.00 72 1012.2
20260905204005 26 225 0.0 3.2 0.00 0.00 0.00 75 1012.3
20260905203505 26 229 0.0 1.6 0.00 0.00 0.00 74 1012.3
20260905203005 26 229 0.0 3.2 0.00 0.00 0.00 77 1012.4
20260905202506 26 229 0.0 3.2 0.00 0.00 0.00 78 1012.2
20260905202004 26 273 0.0 8.0 0.00 0.00 0.00 79 1012.2
20260905201505 26 225 3.2 8.0 0.00 0.00 0.00 78 1012.2
20260905201004 26 223 1.6 6.4 0.00 0.00 0.00 77 1012.3
20260905200504 26 224 0.0 3.2 0.00 0.00 0.00 76 1012.3
20260905200109 26 225 0.0 4.8 0.00 0.00 0.00 76 1012.4
20260905195503 26 211 0.0 4.8 0.00 0.00 0.00 75 1012.4
20260905195004 26 208 0.0 3.2 0.00 0.00 0.00 75 1012.4
20260905194503 26 251 0.0 0.0 0.00 0.00 0.00 75 1012.5
20260905194003 26 251 0.0 1.6 0.00 0.00 0.00 76 1012.5
20260905193503 26 251 0.0 3.2 0.00 0.00 0.00 76 1012.3
20260905193113 26 251 0.0 3.2 0.00 0.00 0.00 75 1012.3
20260905192502 26 308 0.0 3.2 0.00 0.00 0.00 77 1012.2
20260905192003 26 275 0.0 3.2 0.00 0.00 0.00 77 1012.4
20260905191502 26 325 0.0 4.8 0.00 0.00 0.00 78 1012.5
20260905191002 26 247 0.0 4.8 0.00 0.00 0.00 79 1012.3
20260905190501 26 236 0.0 6.4 0.00 0.00 0.00 78 1012.2
20260905185501 26 304 1.6 3.2 0.00 0.00 0.00 78 1012.5
20260905185001 26 77 0.0 0.0 0.00 0.00 0.00 78 1012.0
20260905184504 26 77 0.0 0.0 0.00 0.00 0.00 81 1011.8
20260905184100 26 77 0.0 0.0 0.00 0.00 0.00 82 1011.8
20260905183600 26 77 0.0 0.0 0.00 0.00 0.00 79 1011.9
20260905183102 26 77 0.0 3.2 0.00 0.00 0.00 81 1011.7
20260905182559 26 77 0.0 3.2 0.00 0.00 0.00 81 1011.8
20260905182059 26 140 0.0 3.2 0.00 0.00 0.00 81 1011.9
20260905181558 26 275 0.0 1.6 0.00 0.00 0.00 83 1012.3
20260905181059 26 275 0.0 3.2 0.00 0.00 0.00 83 1012.7
20260905180558 26 275 0.0 3.2 0.00 0.00 0.00 83 1012.9
20260905180057 26 281 0.0 3.2 0.00 0.00 0.00 82 1012.9
20260905175558 26 260 0.0 3.2 0.00 0.00 0.00 82 1012.7
20260905175055 26 239 1.6 6.4 0.00 0.00 0.00 81 1012.8
20260905174558 27 217 3.2 6.4 0.00 0.00 0.00 76 1012.8
20260905174054 28 258 0.0 12.9 0.00 0.00 0.00 74 1013.4
20260905173554 29 234 1.6 12.9 0.00 0.00 0.00 70 1013.4
20260905173053 30 284 1.6 6.4 0.00 0.00 0.00 68 1013.6
20260905172554 30 294 1.6 4.8 0.00 0.00 0.00 64 1013.4
20260905172054 31 306 0.0 4.8 0.00 0.00 0.00 66 1013.2
20260905171559 31 302 0.0 4.8 0.00 0.00 0.00 67 1013.4
20260905171056 31 307 0.0 6.4 0.00 0.00 0.00 62 1013.4
20260905170553 31 213 1.6 4.8 0.00 0.00 0.00 65 1013.4
20260905170053 32 265 0.0 9.7 0.00 0.00 0.00 63 1013.3
20260905165552 32 244 3.2 9.7 0.00 0.00 0.00 63 1013.5
20260905165052 32 227 1.6 8.0 0.00 0.00 0.00 61 1013.6
20260905164552 32 286 0.0 8.0 0.00 0.00 0.00 64 1013.6
20260905164052 32 223 1.6 9.7 0.00 0.00 0.00 59 1013.5
20260905163552 32 255 1.6 11.3 0.00 0.00 0.00 59 1013.5
20260905163054 32 227 4.8 11.3 0.00 0.00 0.00 58 1013.5
20260905162554 32 343 0.0 12.9 0.00 0.00 0.00 65 1013.6
20260905162049 32 257 3.2 8.0 0.00 0.00 0.00 62 1013.7
20260905161549 32 239 3.2 8.0 0.00 0.00 0.00 62 1013.7
20260905161048 32 236 1.6 6.4 0.00 0.00 0.00 60 1013.8
20260905160548 32 227 0.0 6.4 0.00 0.00 0.00 60 1014.0
20260905160048 32 56 1.6 6.4 0.00 0.00 0.00 60 1014.1
20260905155546 32 239 0.0 6.4 0.00 0.00 0.00 62 1014.2
20260905155045 31 105 0.0 6.4 0.00 0.00 0.00 64 1014.2
20260905154557 31 247 1.6 8.0 0.00 0.00 0.00 64 1013.9
20260905154047 31 199 1.6 6.4 0.00 0.00 0.00 65 1014.0
20260905153544 31 242 0.0 3.2 0.00 0.00 0.00 64 1014.1
20260905153044 31 309 0.0 3.2 0.00 0.00 0.00 63 1013.9
20260905152544 31 268 0.0 6.4 0.00 0.00 0.00 63 1014.0
20260905152042 31 268 3.2 6.4 0.00 0.00 0.00 62 1013.9
20260905151541 31 44 0.0 1.6 0.00 0.00 0.00 66 1013.9
20260905151040 30 44 0.0 3.2 0.00 0.00 0.00 70 1013.9
20260905150541 30 198 0.0 6.4 0.00 0.00 0.00 69 1013.9
20260905150040 30 211 0.0 4.8 0.00 0.00 0.00 73 1014.1
20260905145538 30 266 0.0 4.8 0.00 0.00 0.00 71 1014.1
20260905145037 30 294 0.0 3.2 0.00 0.00 0.00 70 1013.9
20260905144536 30 227 0.0 3.2 0.00 0.00 0.00 73 1013.9
20260905144035 30 213 0.0 4.8 0.00 0.00 0.00 72 1013.9
20260905143534 30 211 0.0 4.8 0.00 0.00 0.00 75 1014.0
20260905143033 29 205 0.0 4.8 0.00 0.00 0.00 75 1014.2
20260905142532 29 210 1.6 4.8 0.00 0.00 0.00 77 1014.2
20260905142032 28 267 0.0 4.8 0.00 0.00 0.00 76 1014.2
20260905141530 28 241 0.0 4.8 0.00 0.00 0.00 78 1014.2
20260905141032 28 286 1.6 6.4 0.00 0.00 0.00 78 1014.1
20260905140532 28 225 0.0 8.0 0.00 0.00 0.00 79 1014.1
20260905140028 27 215 3.2 8.0 0.00 0.00 0.00 80 1014.1
20260905135527 28 229 1.6 6.4 0.00 0.00 0.00 80 1014.0
20260905135026 27 265 0.0 3.2 0.00 0.00 0.00 81 1014.2
20260905134535 27 328 0.0 3.2 0.00 0.00 0.00 82 1014.2
20260905134024 27 298 0.0 3.2 0.00 0.00 0.00 83 1014.3
20260905133524 27 339 0.0 1.6 0.00 0.00 0.00 82 1014.3
20260905133021 27 270 0.0 4.8 0.00 0.00 0.00 84 1014.4
20260905132520 26 282 0.0 4.8 0.00 0.00 0.00 85 1014.4
20260905132020 26 331 0.0 1.6 0.00 0.00 0.00 85 1014.5
20260905131518 26 292 0.0 4.8 0.00 0.00 0.00 87 1014.4
20260905131018 26 292 0.0 4.8 0.00 0.00 0.00 87 1014.5
20260905130520 25 297 0.0 0.0 0.00 0.00 0.00 88 1014.5
20260905130016 25 297 0.0 0.0 0.00 0.00 0.00 89 1014.7
20260905125513 25 302 0.0 1.6 0.00 0.00 0.00 89 1014.6
20260905125015 25 271 0.0 1.6 0.00 0.00 0.00 90 1014.6
20260905124516 24 308 0.0 1.6 0.00 0.00 0.00 92 1014.8
20260905124010 24 275 0.0 0.0 0.00 0.00 0.00 91 1014.7
20260905123509 23 275 0.0 0.0 0.00 0.00 0.00 92 1014.6
20260905123009 23 275 0.0 0.0 0.00 0.00 0.00 92 1014.6
20260905122513 23 275 0.0 0.0 0.00 0.00 0.00 94 1014.6
20260905122012 23 275 0.0 0.0 0.00 0.00 0.00 94 1014.6
20260905121509 23 275 0.0 1.6 0.00 0.00 0.00 95 1014.5
20260905121009 22 275 0.0 1.6 0.00 0.00 0.00 96 1014.4
20260905120509 22 275 0.0 0.0 0.00 0.00 0.00 96 1014.4
20260905120017 22 275 0.0 0.0 0.00 0.00 0.00 96 1014.3
20260905115507 22 275 0.0 1.6 0.00 0.00 0.00 97 1014.3
20260905115007 21 275 0.0 1.6 0.00 0.00 0.00 97 1014.2
20260905114506 21 275 0.0 0.0 0.00 0.00 0.00 97 1014.1
20260905114007 21 275 0.0 0.0 0.00 0.00 0.00 97 1014.1
20260905113507 21 275 0.0 0.0 0.00 0.00 0.00 96 1014.2
20260905113006 21 275 0.0 0.0 0.00 0.00 0.00 97 1014.1
20260905112506 21 275 0.0 0.0 0.00 0.00 0.00 97 1014.1
20260905112007 21 275 0.0 0.0 0.00 0.00 0.00 96 1014.0
20260905111506 21 275 0.0 0.0 0.00 0.00 0.00 96 1013.9
20260905111010 21 275 0.0 0.0 0.00 0.00 0.00 96 1014.0
20260905110506 21 275 0.0 0.0 0.00 0.00 0.00 96 1013.9
20260905110005 21 275 0.0 0.0 0.00 0.00 0.00 96 1013.6
20260905105508 21 275 0.0 3.2 0.00 0.00 0.00 97 1013.6
20260905105004 21 275 0.0 3.2 0.00 0.00 0.00 96 1013.6
20260905104503 21 275 0.0 1.6 0.00 0.00 0.00 96 1013.6
20260905104004 21 275 0.0 0.0 0.00 0.00 0.00 96 1013.6
20260905103503 21 275 0.0 0.0 0.00 0.00 0.00 96 1013.5
20260905103005 21 275 0.0 0.0 0.00 0.00 0.00 96 1013.4
20260905102502 21 275 0.0 0.0 0.00 0.00 0.00 96 1013.5
20260905102002 21 275 0.0 0.0 0.00 0.00 0.00 96 1013.5
20260905101502 21 275 0.0 0.0 0.00 0.00 0.00 96 1013.5
20260905101002 21 275 0.0 0.0 0.00 0.00 0.00 96 1013.5
20260905100502 21 275 0.0 0.0 0.00 0.00 0.00 96 1013.5
20260905100002 21 275 0.0 0.0 0.00 0.00 0.00 96 1013.4
20260905095503 21 275 0.0 0.0 0.00 0.00 0.00 96 1013.4
20260905095002 21 275 0.0 0.0 0.00 0.00 0.00 96 1013.4
20260905094500 21 275 0.0 1.6 0.00 0.00 0.00 96 1013.3
20260905094000 21 275 0.0 1.6 0.00 0.00 0.00 96 1013.3
20260905093600 21 275 0.0 0.0 0.00 0.00 0.00 96 1013.2
20260905093100 21 275 0.0 0.0 0.00 0.00 0.00 96 1013.2
20260905092602 21 275 0.0 0.0 0.00 0.00 0.00 95 1013.3
20260905092059 21 275 0.0 0.0 0.00 0.00 0.00 95 1013.3
20260905091603 21 275 0.0 0.0 0.00 0.00 0.00 96 1013.4
20260905091057 21 275 0.0 0.0 0.00 0.00 0.00 95 1013.3
20260905090557 21 275 0.0 0.0 0.00 0.00 0.00 95 1013.2
20260905090057 21 275 0.0 0.0 0.00 0.00 0.00 95 1013.3
20260905085556 21 275 0.0 0.0 0.00 0.00 0.00 95 1013.2
20260905085054 22 275 0.0 0.0 0.00 0.00 0.00 95 1013.3
20260905084556 22 275 0.0 0.0 0.00 0.00 0.00 95 1013.4
20260905084056 22 275 0.0 0.0 0.00 0.00 0.00 95 1013.6
20260905083555 22 275 0.0 0.0 0.00 0.00 0.00 95 1013.6
20260905083054 22 275 0.0 0.0 0.00 0.00 0.00 95 1013.7
20260905082553 22 275 0.0 0.0 0.00 0.00 0.00 95 1013.6
20260905082053 22 275 0.0 0.0 0.00 0.00 0.00 95 1013.5
20260905081553 22 275 0.0 0.0 0.00 0.00 0.00 95 1013.5
20260905081054 22 275 0.0 0.0 0.00 0.00 0.00 95 1013.6
20260905080551 22 275 0.0 0.0 0.00 0.00 0.00 95 1013.7
20260905080050 22 275 0.0 0.0 0.00 0.00 0.00 95 1013.9
20260905075548 22 275 0.0 0.0 0.00 0.00 0.00 95 1014.1
20260905075053 22 275 0.0 0.0 0.00 0.00 0.00 95 1014.4
20260905074549 22 275 0.0 0.0 0.00 0.00 0.00 95 1014.1
20260905074050 22 275 0.0 0.0 0.00 0.00 0.00 95 1014.1
20260905073548 22 275 0.0 0.0 0.00 0.00 0.00 94 1014.1
20260905073047 22 275 0.0 0.0 0.00 0.00 0.00 94 1014.0
20260905072547 22 275 0.0 0.0 0.00 0.00 0.00 94 1013.9
20260905072047 22 275 0.0 0.0 0.00 0.00 0.00 94 1013.9
20260905071548 22 275 0.0 0.0 0.00 0.00 0.00 94 1014.0
20260905071046 22 275 0.0 0.0 0.00 0.00 0.00 94 1014.1
20260905070546 22 275 0.0 0.0 0.00 0.00 0.00 94 1014.2
20260905070045 22 275 0.0 0.0 0.00 0.00 0.00 94 1014.2
20260905065544 22 275 0.0 0.0 0.00 0.00 0.00 94 1014.3
20260905065044 22 275 0.0 0.0 0.00 0.00 0.00 94 1014.3
20260905064547 22 275 0.0 0.0 0.00 0.00 0.00 94 1014.3
20260905064043 22 275 0.0 0.0 0.00 0.00 0.00 94 1014.4
20260905063542 22 275 0.0 0.0 0.00 0.00 0.00 94 1014.3
20260905063042 22 275 0.0 0.0 0.00 0.00 0.00 94 1014.4
20260905062542 22 275 0.0 0.0 0.00 0.00 0.00 94 1014.5
20260905062041 22 275 0.0 0.0 0.00 0.00 0.00 94 1014.6
20260905061544 22 275 0.0 0.0 0.00 0.00 0.00 94 1014.6
20260905061040 22 275 0.0 0.0 0.00 0.00 0.00 94 1014.7